"read_dt","SO2 (ppb)","flags","PMT voltage (V)","lamp voltage (V)","lamp intensity (Hz)","internal temp (C)","react chamber temp (C)","sample flow (l/min)","pres (mmHg)","SO2 bkg (ppb)","SO2 coefficient"
2014-11-05 07:21:00,2015E-3,5C000000,-0724,0833,12274,027.2,045.4,0.476,731.8,01.19,0.508
2014-11-05 07:22:00,1886E-3,5C000000,-0724,0832,12173,027.2,045.4,0.476,731.8,01.19,0.508
2014-11-05 07:23:00,2078E-3,5C000000,-0724,0832,12286,027.2,045.4,0.476,731.8,01.19,0.508
2014-11-05 07:24:00,2000E-3,5C000000,-0724,0832,12429,027.2,045.4,0.476,731.8,01.19,0.508
2014-11-05 07:25:00,2122E-3,5C000000,-0724,0832,12140,027.2,045.4,0.476,731.8,01.19,0.508
2014-11-05 07:26:00,1973E-3,5C000000,-0724,0832,12251,027.2,045.4,0.476,731.8,01.19,0.508
2014-11-05 07:27:00,1960E-3,5C000000,-0724,0833,12238,027.2,045.4,0.476,731.8,01.19,0.508
2014-11-05 07:28:00,2112E-3,5C000000,-0724,0832,12224,027.2,045.4,0.476,731.9,01.19,0.508
2014-11-05 07:29:00,2096E-3,5C000000,-0724,0833,12155,027.2,045.4,0.476,731.9,01.19,0.508
2014-11-05 07:30:00,2127E-3,5C000000,-0724,0833,12181,027.2,045.4,0.476,731.9,01.19,0.508
2014-11-05 07:31:00,2114E-3,5C000000,-0724,0832,12106,027.2,045.4,0.476,731.9,01.19,0.508
2014-11-05 07:32:00,1896E-3,5C000000,-0724,0832,12194,027.2,045.4,0.476,731.9,01.19,0.508
2014-11-05 07:33:00,2086E-3,5C000000,-0724,0832,11970,027.2,045.4,0.476,731.9,01.19,0.508
2014-11-05 07:34:00,1952E-3,5C000000,-0724,0832,12160,027.2,045.4,0.476,731.9,01.19,0.508
2014-11-05 07:35:00,2048E-3,5C000000,-0724,0832,12115,027.2,045.4,0.476,731.9,01.19,0.508
2014-11-05 07:36:00,2084E-3,5C000000,-0724,0832,12272,027.2,045.4,0.476,731.9,01.19,0.508
2014-11-05 07:37:00,2020E-3,5C000000,-0724,0833,12133,027.2,045.4,0.476,731.9,01.19,0.508
2014-11-05 07:38:00,2105E-3,5C000000,-0724,0832,12203,027.2,045.4,0.476,731.9,01.19,0.508
2014-11-05 07:39:00,2005E-3,5C000000,-0724,0832,12158,027.2,045.4,0.476,731.9,01.19,0.508
2014-11-05 07:40:00,2191E-3,5C000000,-0724,0832,12271,027.2,045.4,0.476,731.9,01.19,0.508
2014-11-05 07:41:00,2130E-3,5C000000,-0724,0832,12158,027.2,045.4,0.476,731.9,01.19,0.508
2014-11-05 07:42:00,1987E-3,5C000000,-0724,0833,12059,027.2,045.4,0.477,731.9,01.19,0.508
2014-11-05 07:43:00,1939E-3,5C000000,-0724,0833,12266,027.2,045.4,0.477,731.8,01.19,0.508
2014-11-05 07:44:00,1996E-3,5C000000,-0724,0832,12047,027.2,045.4,0.476,731.9,01.19,0.508
2014-11-05 07:45:00,2072E-3,5C000000,-0724,0833,12230,027.2,045.4,0.476,731.9,01.19,0.508
2014-11-05 07:46:00,1962E-3,5C000000,-0724,0832,12073,027.2,045.4,0.476,731.9,01.19,0.508
2014-11-05 07:47:00,2226E-3,5C000000,-0724,0832,12303,027.2,045.4,0.476,731.9,01.19,0.508
2014-11-05 07:48:00,2260E-3,5C000000,-0724,0832,12016,027.2,045.4,0.476,731.9,01.19,0.508
2014-11-05 07:49:00,2199E-3,5C000000,-0724,0831,12115,027.2,045.4,0.476,732.0,01.19,0.508
2014-11-05 07:50:00,2001E-3,5C000000,-0724,0832,12273,027.2,045.4,0.476,732.0,01.19,0.508
2014-11-05 07:51:00,2093E-3,5C000000,-0724,0832,12124,027.2,045.4,0.476,732.0,01.19,0.508
2014-11-05 07:52:00,1931E-3,5C000000,-0724,0831,12172,027.2,045.4,0.476,731.9,01.19,0.508
2014-11-05 07:53:00,2018E-3,5C000000,-0724,0832,12261,027.2,045.4,0.476,731.9,01.19,0.508
2014-11-05 07:54:00,2051E-3,5C000000,-0724,0831,12153,027.2,045.4,0.476,731.9,01.19,0.508
2014-11-05 07:55:00,1907E-3,5C000000,-0724,0831,12288,027.2,045.4,0.476,731.9,01.19,0.508
2014-11-05 07:56:00,2022E-3,5C000000,-0724,0832,12272,027.2,045.4,0.476,731.9,01.19,0.508
2014-11-05 07:57:00,2150E-3,5C000000,-0724,0832,12123,027.2,045.4,0.476,731.9,01.19,0.508
2014-11-05 07:58:00,2029E-3,5C000000,-0724,0832,12167,027.2,045.4,0.476,731.9,01.19,0.508
2014-11-05 07:59:00,2042E-3,5C000000,-0724,0832,12317,027.2,045.4,0.476,731.9,01.19,0.508
2014-11-05 08:00:00,2067E-3,5C000000,-0724,0832,12376,027.2,045.4,0.476,731.9,01.19,0.508
2014-11-05 08:01:00,2015E-3,5C000000,-0724,0832,12255,027.2,045.4,0.476,731.9,01.19,0.508
2014-11-05 08:02:00,2051E-3,5C000000,-0724,0832,12080,027.2,045.4,0.476,731.9,01.19,0.508
2014-11-05 08:03:00,2053E-3,5C000000,-0724,0831,12125,027.2,045.4,0.476,732.0,01.19,0.508
2014-11-05 08:04:00,2119E-3,5C000000,-0724,0832,12245,027.3,045.4,0.476,732.0,01.19,0.508
2014-11-05 08:05:00,1925E-3,5C000000,-0724,0833,12171,027.2,045.4,0.476,731.9,01.19,0.508
2014-11-05 08:06:00,2010E-3,5C000000,-0724,0832,12121,027.2,045.4,0.476,732.0,01.19,0.508
2014-11-05 08:07:00,2025E-3,5C000000,-0724,0833,12303,027.3,045.4,0.476,732.0,01.19,0.508
2014-11-05 08:08:00,2138E-3,5C000000,-0724,0832,12135,027.2,045.4,0.476,732.0,01.19,0.508
2014-11-05 08:09:00,2007E-3,5C000000,-0724,0832,12190,027.3,045.4,0.476,732.0,01.19,0.508
2014-11-05 08:10:00,2029E-3,5C000000,-0724,0832,12148,027.2,045.4,0.476,732.0,01.19,0.508
2014-11-05 08:11:00,2048E-3,5C000000,-0724,0832,12061,027.2,045.4,0.476,731.9,01.19,0.508
2014-11-05 08:12:00,2041E-3,5C000000,-0724,0833,12302,027.2,045.4,0.476,731.9,01.19,0.508
2014-11-05 08:13:00,2163E-3,5C000000,-0724,0832,12217,027.2,045.4,0.476,731.9,01.19,0.508
2014-11-05 08:14:00,2072E-3,5C000000,-0724,0832,12077,027.3,045.4,0.476,731.8,01.19,0.508
2014-11-05 08:15:00,1932E-3,5C000000,-0724,0832,12248,027.2,045.4,0.476,731.8,01.19,0.508
2014-11-05 08:16:00,2073E-3,5C000000,-0724,0833,12138,027.2,045.4,0.476,731.9,01.19,0.508
2014-11-05 08:17:00,2111E-3,5C000000,-0724,0833,12251,027.2,045.4,0.476,731.9,01.19,0.508
2014-11-05 08:18:00,1886E-3,5C000000,-0724,0832,12129,027.3,045.4,0.476,731.9,01.19,0.508
2014-11-05 08:19:00,1997E-3,5C000000,-0724,0831,12203,027.2,045.4,0.476,731.9,01.19,0.508
2014-11-05 08:20:00,1957E-3,5C000000,-0724,0832,12077,027.2,045.4,0.476,731.8,01.19,0.508
2014-11-05 08:21:00,1973E-3,5C000000,-0724,0831,12207,027.2,045.4,0.476,731.8,01.19,0.508
2014-11-05 08:22:00,1961E-3,5C000000,-0724,0830,12060,027.2,045.4,0.476,731.8,01.19,0.508
2014-11-05 08:23:00,1993E-3,5C000000,-0724,0831,12000,027.3,045.4,0.476,731.8,01.19,0.508
2014-11-05 08:24:00,2008E-3,5C000000,-0724,0831,12142,027.3,045.4,0.476,731.9,01.19,0.508
2014-11-05 08:25:00,1926E-3,5C000000,-0724,0832,12175,027.3,045.4,0.476,731.9,01.19,0.508
2014-11-05 08:26:00,2032E-3,5C000000,-0724,0832,12189,027.3,045.4,0.476,731.8,01.19,0.508
2014-11-05 08:27:00,2009E-3,5C000000,-0724,0832,12145,027.3,045.4,0.476,731.8,01.19,0.508
2014-11-05 08:28:00,1924E-3,5C000000,-0724,0833,12256,027.3,045.4,0.476,731.9,01.19,0.508
2014-11-05 08:29:00,1985E-3,5C000000,-0724,0832,12145,027.3,045.4,0.476,731.9,01.19,0.508
2014-11-05 08:30:00,2059E-3,5C000000,-0724,0832,12083,027.3,045.4,0.476,731.9,01.19,0.508
2014-11-05 08:31:00,1969E-3,5C000000,-0724,0832,12113,027.3,045.4,0.476,731.8,01.19,0.508
2014-11-05 08:32:00,1949E-3,5C000000,-0724,0832,12231,027.3,045.4,0.476,731.9,01.19,0.508
2014-11-05 08:33:00,2009E-3,5C000000,-0724,0833,12152,027.3,045.4,0.476,731.9,01.19,0.508
2014-11-05 08:34:00,1949E-3,5C000000,-0724,0832,12041,027.3,045.4,0.476,731.9,01.19,0.508
2014-11-05 08:35:00,1975E-3,5C000000,-0724,0832,12127,027.3,045.4,0.476,731.9,01.19,0.508
2014-11-05 08:36:00,2091E-3,5C000000,-0724,0832,12050,027.3,045.4,0.476,731.9,01.19,0.508
2014-11-05 08:37:00,1816E-3,5C000000,-0724,0832,12226,027.3,045.4,0.476,731.9,01.19,0.508
2014-11-05 08:38:00,2038E-3,5C000000,-0724,0833,12246,027.3,045.4,0.476,731.9,01.19,0.508
2014-11-05 08:39:00,2159E-3,5C000000,-0724,0832,12246,027.3,045.4,0.476,731.9,01.19,0.508
2014-11-05 08:40:00,2130E-3,5C000000,-0724,0831,12155,027.3,045.4,0.476,731.9,01.19,0.508
2014-11-05 08:41:00,2158E-3,5C000000,-0724,0831,12079,027.3,045.4,0.476,732.0,01.19,0.508
2014-11-05 08:42:00,2031E-3,5C000000,-0724,0832,11933,027.3,045.4,0.476,732.0,01.19,0.508
2014-11-05 08:43:00,2085E-3,5C000000,-0724,0832,12277,027.3,045.4,0.476,731.9,01.19,0.508
2014-11-05 08:44:00,2089E-3,5C000000,-0724,0832,12226,027.3,045.4,0.476,732.0,01.19,0.508
2014-11-05 08:45:00,2093E-3,5C000000,-0724,0832,12210,027.3,045.4,0.476,732.0,01.19,0.508
2014-11-05 08:46:00,2026E-3,5C000000,-0724,0832,12102,027.3,045.4,0.476,731.9,01.19,0.508
2014-11-05 08:47:00,1977E-3,5C000000,-0724,0833,12157,027.3,045.4,0.476,731.9,01.19,0.508
2014-11-05 08:48:00,2185E-3,5C000000,-0724,0833,11966,027.3,045.4,0.476,731.9,01.19,0.508
2014-11-05 08:49:00,2003E-3,5C000000,-0724,0832,12208,027.3,045.4,0.476,731.9,01.19,0.508
2014-11-05 08:50:00,2121E-3,5C000000,-0724,0832,12252,027.3,045.4,0.476,731.9,01.19,0.508
2014-11-05 08:51:00,1999E-3,5C000000,-0724,0832,12070,027.3,045.4,0.476,731.9,01.19,0.508
2014-11-05 08:52:00,2053E-3,5C000000,-0724,0833,12263,027.3,045.4,0.476,731.9,01.19,0.508
2014-11-05 08:53:00,1985E-3,5C000000,-0724,0833,12274,027.3,045.4,0.476,731.8,01.19,0.508
2014-11-05 08:54:00,2026E-3,5C000000,-0724,0832,12114,027.3,045.4,0.476,731.7,01.19,0.508
2014-11-05 08:55:00,1990E-3,5C000000,-0724,0833,12200,027.3,045.4,0.476,731.7,01.19,0.508
2014-11-05 08:56:00,2027E-3,5C000000,-0724,0832,11999,027.3,045.4,0.476,731.6,01.19,0.508
2014-11-05 08:57:00,2044E-3,5C000000,-0724,0832,12096,027.3,045.4,0.476,731.6,01.19,0.508
2014-11-05 08:58:00,1986E-3,5C000000,-0724,0832,12330,027.3,045.4,0.476,731.6,01.19,0.508
2014-11-05 08:59:00,2062E-3,5C000000,-0724,0832,12160,027.3,045.4,0.476,731.6,01.19,0.508
2014-11-05 09:00:00,1977E-3,5C000000,-0724,0832,11954,027.3,045.4,0.476,731.6,01.19,0.508
2014-11-05 09:01:00,1989E-3,5C000000,-0724,0833,12119,027.3,045.4,0.476,731.5,01.19,0.508
2014-11-05 09:02:00,1957E-3,5C000000,-0724,0833,12195,027.3,045.4,0.476,731.4,01.19,0.508
2014-11-05 09:03:00,1959E-3,5C000000,-0724,0833,12127,027.3,045.4,0.476,731.4,01.19,0.508
2014-11-05 09:04:00,1906E-3,5C000000,-0724,0832,12208,027.3,045.4,0.476,731.5,01.19,0.508
2014-11-05 09:05:00,2036E-3,5C000000,-0724,0832,12134,027.3,045.4,0.476,731.5,01.19,0.508
2014-11-05 09:06:00,2020E-3,5C000000,-0724,0832,12137,027.3,045.4,0.476,731.6,01.19,0.508
2014-11-05 09:07:00,2082E-3,5C000000,-0724,0831,12358,027.3,045.4,0.476,731.6,01.19,0.508
2014-11-05 09:08:00,2038E-3,5C000000,-0724,0832,12149,027.3,045.4,0.476,731.6,01.19,0.508
2014-11-05 09:09:00,1984E-3,5C000000,-0724,0832,12274,027.2,045.4,0.476,731.7,01.19,0.508
2014-11-05 09:10:00,1977E-3,5C000000,-0724,0832,12241,027.3,045.4,0.476,731.7,01.19,0.508
2014-11-05 09:11:00,2062E-3,5C000000,-0724,0832,12102,027.2,045.4,0.476,731.7,01.19,0.508
2014-11-05 09:12:00,1944E-3,5C000000,-0724,0832,11993,027.3,045.4,0.476,731.7,01.19,0.508
2014-11-05 09:13:00,2000E-3,5C000000,-0724,0832,12217,027.3,045.4,0.476,731.7,01.19,0.508
2014-11-05 09:14:00,1992E-3,5C000000,-0724,0831,12163,027.3,045.4,0.476,731.6,01.19,0.508
2014-11-05 09:15:00,2014E-3,5C000000,-0724,0831,12198,027.3,045.4,0.476,731.6,01.19,0.508
2014-11-05 09:16:00,2021E-3,5C000000,-0724,0831,12215,027.3,045.4,0.476,731.5,01.19,0.508
2014-11-05 09:17:00,2023E-3,5C000000,-0724,0832,12107,027.3,045.4,0.476,731.6,01.19,0.508
2014-11-05 09:18:00,1964E-3,5C000000,-0724,0833,12259,027.3,045.4,0.476,731.5,01.19,0.508
2014-11-05 09:19:00,2098E-3,5C000000,-0724,0832,12141,027.3,045.4,0.476,731.5,01.19,0.508
2014-11-05 09:20:00,2012E-3,5C000000,-0724,0833,12104,027.3,045.4,0.476,731.5,01.19,0.508
2014-11-05 09:21:00,1900E-3,5C000000,-0724,0832,12046,027.3,045.4,0.476,731.5,01.19,0.508
2014-11-05 09:22:00,1923E-3,5C000000,-0724,0832,11999,027.3,045.4,0.476,731.5,01.19,0.508
2014-11-05 09:23:00,1954E-3,5C000000,-0724,0832,12241,027.3,045.4,0.476,731.4,01.19,0.508
2014-11-05 09:24:00,1912E-3,5C000000,-0724,0833,12223,027.3,045.4,0.476,731.5,01.19,0.508
2014-11-05 09:25:00,1869E-3,5C000000,-0724,0832,12177,027.3,045.4,0.476,731.4,01.19,0.508
2014-11-05 09:26:00,1980E-3,5C000000,-0724,0832,12061,027.3,045.4,0.476,731.4,01.19,0.508
2014-11-05 09:27:00,2135E-3,5C000000,-0724,0831,12325,027.3,045.4,0.476,731.3,01.19,0.508
2014-11-05 09:28:00,1929E-3,5C000000,-0724,0832,12224,027.3,045.4,0.476,731.3,01.19,0.508
2014-11-05 09:29:00,2033E-3,5C000000,-0724,0832,11923,027.3,045.4,0.476,731.3,01.19,0.508
2014-11-05 09:30:00,1923E-3,5C000000,-0724,0832,12232,027.3,045.4,0.476,731.3,01.19,0.508
2014-11-05 09:31:00,2078E-3,5C000000,-0724,0832,12200,027.3,045.4,0.476,731.2,01.19,0.508
2014-11-05 09:32:00,1955E-3,5C000000,-0724,0833,12171,027.3,045.4,0.476,731.3,01.19,0.508
2014-11-05 09:33:00,2022E-3,5C000000,-0724,0832,12177,027.3,045.4,0.476,731.2,01.19,0.508
2014-11-05 09:34:00,2104E-3,5C000000,-0724,0831,12161,027.3,045.4,0.476,731.2,01.19,0.508
2014-11-05 09:35:00,1932E-3,5C000000,-0724,0832,12176,027.3,045.4,0.476,731.2,01.19,0.508
2014-11-05 09:36:00,2050E-3,5C000000,-0724,0832,12294,027.3,045.4,0.476,731.2,01.19,0.508
2014-11-05 09:37:00,1963E-3,5C000000,-0724,0832,12227,027.3,045.4,0.476,731.3,01.19,0.508
2014-11-05 09:38:00,2103E-3,5C000000,-0724,0832,12193,027.3,045.4,0.476,731.3,01.19,0.508
2014-11-05 09:39:00,1953E-3,5C000000,-0724,0833,12172,027.3,045.4,0.476,731.3,01.19,0.508
2014-11-05 09:40:00,1957E-3,5C000000,-0724,0833,11993,027.3,045.4,0.476,731.3,01.19,0.508
2014-11-05 09:41:00,1906E-3,5C000000,-0724,0831,12020,027.3,045.4,0.475,731.3,01.19,0.508
2014-11-05 09:42:00,1919E-3,5C000000,-0724,0832,12133,027.3,045.4,0.476,731.3,01.19,0.508
2014-11-05 09:43:00,2015E-3,5C000000,-0724,0833,12120,027.3,045.4,0.475,731.3,01.19,0.508
2014-11-05 09:44:00,2044E-3,5C000000,-0724,0832,12079,027.3,045.4,0.476,731.3,01.19,0.508
2014-11-05 09:45:00,2134E-3,5C000000,-0724,0832,12284,027.3,045.4,0.475,731.2,01.19,0.508
2014-11-05 09:46:00,2109E-3,5C000000,-0724,0832,12193,027.3,045.4,0.476,731.3,01.19,0.508
2014-11-05 09:47:00,1932E-3,5C000000,-0724,0832,12086,027.3,045.4,0.476,731.2,01.19,0.508
2014-11-05 09:48:00,2091E-3,5C000000,-0724,0832,12203,027.3,045.4,0.476,731.2,01.19,0.508
2014-11-05 09:49:00,2109E-3,5C000000,-0724,0832,12185,027.3,045.4,0.476,731.2,01.19,0.508
2014-11-05 09:50:00,2046E-3,5C000000,-0724,0832,12086,027.3,045.4,0.476,731.2,01.19,0.508
2014-11-05 09:51:00,1985E-3,5C000000,-0724,0832,12260,027.3,045.4,0.476,731.3,01.19,0.508
2014-11-05 09:52:00,1969E-3,5C000000,-0724,0833,12255,027.3,045.4,0.476,731.2,01.19,0.508
2014-11-05 09:53:00,2167E-3,5C000000,-0724,0832,12109,027.3,045.4,0.476,731.2,01.19,0.508
2014-11-05 09:54:00,2001E-3,5C000000,-0724,0832,12224,027.3,045.4,0.476,731.2,01.19,0.508
2014-11-05 09:55:00,2178E-3,5C000000,-0724,0831,12133,027.3,045.4,0.476,731.2,01.19,0.508
2014-11-05 09:56:00,1980E-3,5C000000,-0724,0832,12283,027.3,045.4,0.476,731.2,01.19,0.508
2014-11-05 09:57:00,1919E-3,5C000000,-0724,0832,12280,027.3,045.4,0.476,731.2,01.19,0.508
2014-11-05 09:58:00,2131E-3,5C000000,-0724,0831,12135,027.3,045.4,0.476,731.2,01.19,0.508
2014-11-05 09:59:00,2047E-3,5C000000,-0724,0832,12258,027.3,045.4,0.476,731.2,01.19,0.508
2014-11-05 10:00:00,1929E-3,5C000000,-0724,0832,12209,027.3,045.4,0.475,731.2,01.19,0.508
2014-11-05 10:01:00,2057E-3,5C000000,-0724,0833,12234,027.3,045.4,0.475,731.1,01.19,0.508
2014-11-05 10:02:00,1955E-3,5C000000,-0724,0833,12203,027.3,045.4,0.475,731.1,01.19,0.508
2014-11-05 10:03:00,2191E-3,5C000000,-0724,0832,12090,027.3,045.4,0.475,731.0,01.19,0.508
2014-11-05 10:04:00,2095E-3,5C000000,-0724,0833,12135,027.3,045.4,0.475,731.0,01.19,0.508
2014-11-05 10:05:00,2044E-3,5C000000,-0724,0833,12302,027.3,045.4,0.475,731.0,01.19,0.508
2014-11-05 10:06:00,1896E-3,5C000000,-0724,0833,12121,027.3,045.4,0.476,731.0,01.19,0.508
2014-11-05 10:07:00,1929E-3,5C000000,-0724,0832,12174,027.3,045.4,0.476,731.0,01.19,0.508
2014-11-05 10:08:00,1946E-3,5C000000,-0724,0832,12230,027.3,045.4,0.476,731.0,01.19,0.508
2014-11-05 10:09:00,1914E-3,5C000000,-0724,0832,12217,027.3,045.4,0.476,731.0,01.19,0.508
2014-11-05 10:10:00,1968E-3,5C000000,-0724,0832,12327,027.3,045.4,0.476,730.9,01.19,0.508
2014-11-05 10:11:00,1850E-3,5C000000,-0724,0833,12089,027.3,045.4,0.476,731.0,01.19,0.508
2014-11-05 10:12:00,1982E-3,5C000000,-0724,0832,12289,027.3,045.4,0.476,731.0,01.19,0.508
2014-11-05 10:13:00,2049E-3,5C000000,-0724,0832,12281,027.3,045.4,0.476,730.9,01.19,0.508
2014-11-05 10:14:00,2043E-3,5C000000,-0724,0831,12214,027.3,045.4,0.476,730.9,01.19,0.508
2014-11-05 10:15:00,1924E-3,5C000000,-0724,0833,12377,027.3,045.4,0.476,730.9,01.19,0.508
2014-11-05 10:16:00,2014E-3,5C000000,-0724,0832,12029,027.3,045.4,0.475,730.9,01.19,0.508
2014-11-05 10:17:00,2050E-3,5C000000,-0724,0832,11947,027.3,045.4,0.475,730.8,01.19,0.508
2014-11-05 10:18:00,1772E-3,5C000000,-0724,0832,12304,027.3,045.4,0.475,730.9,01.19,0.508
2014-11-05 10:19:00,2024E-3,5C000000,-0724,0832,12387,027.3,045.4,0.475,730.9,01.19,0.508
2014-11-05 10:20:00,1915E-3,5C000000,-0724,0832,12276,027.3,045.4,0.475,731.0,01.19,0.508
2014-11-05 10:21:00,2035E-3,5C000000,-0724,0832,12123,027.3,045.4,0.476,731.0,01.19,0.508
2014-11-05 10:22:00,1995E-3,5C000000,-0724,0832,12146,027.3,045.4,0.476,731.0,01.19,0.508
2014-11-05 10:23:00,1972E-3,5C000000,-0724,0832,12108,027.3,045.4,0.476,730.9,01.19,0.508
2014-11-05 10:24:00,2027E-3,5C000000,-0724,0832,12256,027.3,045.4,0.476,731.0,01.19,0.508
2014-11-05 10:25:00,2013E-3,5C000000,-0724,0832,12142,027.3,045.4,0.476,730.9,01.19,0.508
2014-11-05 10:26:00,2110E-3,5C000000,-0724,0832,12110,027.3,045.4,0.476,730.8,01.19,0.508
2014-11-05 10:27:00,2116E-3,5C000000,-0724,0831,12169,027.3,045.4,0.475,730.7,01.19,0.508
2014-11-05 10:28:00,1951E-3,5C000000,-0724,0832,12263,027.3,045.4,0.475,730.6,01.19,0.508
2014-11-05 10:29:00,2013E-3,5C000000,-0724,0832,12146,027.3,045.4,0.475,730.7,01.19,0.508
2014-11-05 10:30:00,1978E-3,5C000000,-0724,0832,12039,027.3,045.4,0.475,730.7,01.19,0.508
2014-11-05 10:31:00,1883E-3,5C000000,-0724,0832,12183,027.3,045.4,0.475,730.8,01.19,0.508
2014-11-05 10:32:00,1998E-3,5C000000,-0724,0832,12325,027.3,045.4,0.476,730.7,01.19,0.508
2014-11-05 10:33:00,1918E-3,5C000000,-0724,0833,12309,027.3,045.4,0.476,730.7,01.19,0.508
2014-11-05 10:34:00,1958E-3,5C000000,-0724,0833,12174,027.3,045.4,0.476,730.8,01.19,0.508
2014-11-05 10:35:00,1906E-3,5C000000,-0724,0831,12126,027.3,045.4,0.476,730.8,01.19,0.508
2014-11-05 10:36:00,1875E-3,5C000000,-0724,0832,12213,027.3,045.4,0.476,730.8,01.19,0.508
2014-11-05 10:37:00,1909E-3,5C000000,-0724,0832,12079,027.3,045.4,0.475,730.9,01.19,0.508
2014-11-05 10:38:00,1876E-3,5C000000,-0724,0833,12176,027.3,045.4,0.475,730.9,01.19,0.508
2014-11-05 10:39:00,1898E-3,5C000000,-0724,0832,12290,027.3,045.4,0.475,730.9,01.19,0.508
2014-11-05 10:40:00,2050E-3,5C000000,-0724,0832,12185,027.3,045.4,0.475,730.9,01.19,0.508
2014-11-05 10:41:00,2021E-3,5C000000,-0724,0831,12095,027.3,045.4,0.476,730.8,01.19,0.508
2014-11-05 10:42:00,1957E-3,5C000000,-0724,0833,12098,027.3,045.4,0.476,730.8,01.19,0.508
2014-11-05 10:43:00,1925E-3,5C000000,-0724,0833,12166,027.3,045.4,0.476,730.8,01.19,0.508
2014-11-05 10:44:00,2025E-3,5C000000,-0724,0833,12227,027.3,045.4,0.476,730.9,01.19,0.508
2014-11-05 10:45:00,2073E-3,5C000000,-0724,0832,12270,027.3,045.4,0.476,730.8,01.19,0.508
2014-11-05 10:46:00,1957E-3,5C000000,-0724,0832,12090,027.3,045.4,0.476,730.9,01.19,0.508
2014-11-05 10:47:00,1918E-3,5C000000,-0724,0833,12125,027.3,045.4,0.475,730.9,01.19,0.508
2014-11-05 10:48:00,2006E-3,5C000000,-0724,0832,12076,027.3,045.4,0.475,730.9,01.19,0.508
2014-11-05 10:49:00,1962E-3,5C000000,-0724,0832,12140,027.3,045.4,0.475,730.9,01.19,0.508
2014-11-05 10:50:00,2009E-3,5C000000,-0724,0832,12145,027.3,045.4,0.476,730.8,01.19,0.508
2014-11-05 10:51:00,1953E-3,5C000000,-0724,0833,12201,027.3,045.4,0.476,730.8,01.19,0.508
2014-11-05 10:52:00,2037E-3,5C000000,-0724,0833,12213,027.3,045.4,0.476,730.8,01.19,0.508
2014-11-05 10:53:00,1920E-3,5C000000,-0724,0832,12131,027.3,045.4,0.476,730.8,01.19,0.508
2014-11-05 10:54:00,2081E-3,5C000000,-0724,0832,12045,027.3,045.4,0.476,730.8,01.19,0.508
2014-11-05 10:55:00,1920E-3,5C000000,-0724,0832,12229,027.3,045.4,0.476,730.8,01.19,0.508
2014-11-05 10:56:00,2081E-3,5C000000,-0724,0832,11977,027.3,045.4,0.475,730.8,01.19,0.508
2014-11-05 10:57:00,2035E-3,5C000000,-0724,0831,12135,027.3,045.4,0.475,730.8,01.19,0.508
2014-11-05 10:58:00,2027E-3,5C000000,-0724,0833,12142,027.3,045.4,0.475,730.8,01.19,0.508
2014-11-05 10:59:00,1908E-3,5C000000,-0724,0832,12139,027.3,045.4,0.476,730.8,01.19,0.508
2014-11-05 11:00:00,2033E-3,5C000000,-0724,0831,12226,027.3,045.4,0.476,730.9,01.19,0.508
2014-11-05 11:01:00,1994E-3,5C000000,-0724,0833,12191,027.3,045.4,0.476,730.8,01.19,0.508
2014-11-05 11:02:00,2104E-3,5C000000,-0724,0833,12255,027.3,045.4,0.476,730.8,01.19,0.508
2014-11-05 11:03:00,2016E-3,5C000000,-0724,0833,12378,027.3,045.4,0.476,730.7,01.19,0.508
2014-11-05 11:04:00,1874E-3,5C000000,-0724,0833,12294,027.3,045.4,0.475,730.7,01.19,0.508
2014-11-05 11:05:00,2162E-3,5C000000,-0724,0832,12165,027.3,045.4,0.475,730.7,01.19,0.508
2014-11-05 11:06:00,2024E-3,5C000000,-0724,0833,12230,027.3,045.4,0.475,730.7,01.19,0.508
2014-11-05 11:07:00,1970E-3,5C000000,-0724,0833,12103,027.3,045.4,0.476,730.7,01.19,0.508
2014-11-05 11:08:00,2078E-3,5C000000,-0724,0831,12195,027.3,045.4,0.476,730.7,01.19,0.508
2014-11-05 11:09:00,1968E-3,5C000000,-0724,0831,12267,027.3,045.4,0.476,730.7,01.19,0.508
2014-11-05 11:10:00,2008E-3,5C000000,-0724,0832,12290,027.3,045.4,0.476,730.6,01.19,0.508
2014-11-05 11:11:00,1974E-3,5C000000,-0724,0833,12187,027.2,045.4,0.475,730.6,01.19,0.508
2014-11-05 11:12:00,1999E-3,5C000000,-0724,0833,12242,027.2,045.4,0.475,730.6,01.19,0.508
2014-11-05 11:13:00,1984E-3,5C000000,-0724,0831,12179,027.3,045.4,0.475,730.6,01.19,0.508
2014-11-05 11:14:00,1957E-3,5C000000,-0724,0833,12002,027.3,045.4,0.476,730.6,01.19,0.508
2014-11-05 11:15:00,1933E-3,5C000000,-0724,0831,12182,027.3,045.4,0.476,730.6,01.19,0.508
2014-11-05 11:16:00,2041E-3,5C000000,-0724,0833,12274,027.3,045.4,0.476,730.6,01.19,0.508
2014-11-05 11:17:00,2017E-3,5C000000,-0724,0832,12084,027.3,045.4,0.476,730.6,01.19,0.508
2014-11-05 11:18:00,1981E-3,5C000000,-0724,0833,12225,027.3,045.4,0.475,730.6,01.19,0.508
2014-11-05 11:19:00,2070E-3,5C000000,-0724,0832,12089,027.3,045.4,0.475,730.7,01.19,0.508
2014-11-05 11:20:00,1953E-3,5C000000,-0724,0833,12078,027.3,045.4,0.476,730.6,01.19,0.508
2014-11-05 11:21:00,2041E-3,5C000000,-0724,0833,12229,027.2,045.4,0.476,730.7,01.19,0.508
2014-11-05 11:22:00,1962E-3,5C000000,-0724,0833,12248,027.2,045.4,0.476,730.7,01.19,0.508
2014-11-05 11:23:00,2001E-3,5C000000,-0724,0833,12280,027.3,045.4,0.476,730.7,01.19,0.508
2014-11-05 11:24:00,1880E-3,5C000000,-0724,0832,12212,027.2,045.4,0.476,730.7,01.19,0.508
2014-11-05 11:25:00,1984E-3,5C000000,-0724,0832,12327,027.3,045.4,0.475,730.7,01.19,0.508
2014-11-05 11:26:00,2196E-3,5C000000,-0724,0831,12027,027.2,045.4,0.475,730.7,01.19,0.508
2014-11-05 11:27:00,1943E-3,5C000000,-0724,0831,12199,027.2,045.4,0.475,730.8,01.19,0.508
2014-11-05 11:28:00,2067E-3,5C000000,-0724,0833,12068,027.3,045.4,0.476,730.7,01.19,0.508
2014-11-05 11:29:00,1900E-3,5C000000,-0724,0833,12292,027.3,045.4,0.476,730.7,01.19,0.508
2014-11-05 11:30:00,2046E-3,5C000000,-0724,0832,12143,027.3,045.4,0.476,730.6,01.19,0.508
2014-11-05 11:31:00,2007E-3,5C000000,-0724,0831,12147,027.3,045.4,0.476,730.6,01.19,0.508
2014-11-05 11:32:00,1917E-3,5C000000,-0724,0833,12320,027.3,045.4,0.475,730.6,01.19,0.508
2014-11-05 11:33:00,1872E-3,5C000000,-0724,0833,12146,027.3,045.4,0.475,730.6,01.19,0.508
2014-11-05 11:34:00,1871E-3,5C000000,-0724,0833,12259,027.2,045.4,0.475,730.6,01.19,0.508
2014-11-05 11:35:00,2107E-3,5C000000,-0724,0832,12346,027.3,045.4,0.476,730.6,01.19,0.508
2014-11-05 11:36:00,2076E-3,5C000000,-0724,0833,12203,027.2,045.4,0.476,730.6,01.19,0.508
2014-11-05 11:37:00,2114E-3,5C000000,-0724,0833,12095,027.3,045.4,0.476,730.6,01.19,0.508
2014-11-05 11:38:00,2070E-3,5C000000,-0724,0831,12138,027.3,045.4,0.476,730.6,01.19,0.508
2014-11-05 11:39:00,1852E-3,5C000000,-0724,0832,12034,027.3,045.4,0.475,730.6,01.19,0.508
2014-11-05 11:40:00,1989E-3,5C000000,-0724,0832,12112,027.3,045.4,0.475,730.6,01.19,0.508
2014-11-05 11:41:00,1942E-3,5C000000,-0724,0832,12140,027.3,045.4,0.475,730.5,01.19,0.508